This is the latest recevied weather packets stored in our database for station/object DK7LH-6. If no packets are shown the sender has not sent any weather packets the latest 10 day(s).
| Time | Temp. | Humidity | Pressure | Rain* | Wind** | Luminosity | Snow |
|---|---|---|---|---|---|---|---|
| 1777960839 | 8.33° C | 93% | 1011.2 hPa | 0 mm | - | 22 W/m² | - |
| 1777959971 | 8.33° C | 94% | 1011.1 hPa | 0 mm | - | 23 W/m² | - |
| 1777959072 | 8.33° C | 93% | 1011.2 hPa | 0 mm | - | 16 W/m² | - |
| 1777958142 | 8.33° C | 93% | 1011 hPa | 0 mm | - | 8 W/m² | - |
| 1777957274 | 8.33° C | 92% | 1011 hPa | 0 mm | - | 6 W/m² | - |
| 1777956344 | 8.33° C | 93% | 1011 hPa | 0 mm | - | 4 W/m² | - |
| 1777955476 | 8.33° C | 93% | 1011.1 hPa | 0 mm | - | 4 W/m² | - |
| 1777954546 | 8.33° C | 93% | 1011 hPa | 0 mm | - | 1 W/m² | - |
| 1777953616 | 8.33° C | 95% | 1011 hPa | 0 mm | - | 0 W/m² | - |
| 1777952748 | 8.33° C | 95% | 1011 hPa | 0 mm | - | 0 W/m² | - |
| 1777951818 | 8.33° C | 96% | 1011.2 hPa | 0 mm | - | 0 W/m² | - |
| 1777950950 | 8.33° C | 96% | 1011.2 hPa | 0 mm | - | 0 W/m² | - |
| 1777950020 | 8.33° C | 97% | 1011.2 hPa | 0 mm | - | 0 W/m² | - |
| 1777949152 | 8.33° C | 97% | 1011.3 hPa | 0 mm | - | 0 W/m² | - |
| 1777948223 | 8.33° C | 97% | 1011.3 hPa | 0 mm | - | 0 W/m² | - |
| 1777947354 | 8.33° C | 97% | 1011.5 hPa | 0.25 mm | - | 0 W/m² | - |
| 1777946424 | 8.33° C | 97% | 1011.5 hPa | 0.76 mm | - | 0 W/m² | - |
| 1777945557 | 8.33° C | 97% | 1011.7 hPa | 2.54 mm | - | 0 W/m² | - |
| 1777944657 | 8.33° C | 97% | 1011.6 hPa | 4.06 mm | - | 0 W/m² | - |
| 1777943727 | 8.33° C | 96% | 1011.7 hPa | 4.32 mm | - | 0 W/m² | - |
| 1777942860 | 8.33° C | 95% | 1011.8 hPa | 5.08 mm | - | 0 W/m² | - |
| 1777941930 | 8.89° C | 95% | 1011.8 hPa | 3.3 mm | - | 0 W/m² | - |
| 1777941062 | 8.33° C | 94% | 1011.9 hPa | 2.03 mm | - | 0 W/m² | - |
| 1777940131 | 8.89° C | 93% | 1012.1 hPa | 1.52 mm | - | 0 W/m² | - |
| 1777939264 | 8.89° C | 93% | 1012.3 hPa | 0.25 mm | - | 0 W/m² | - |
* Rain latest hour (hover to see other rain measurements)
** Current wind speed in m/s (hover to see current wind gust speed)